FW8514 Weather Reports


time (UTC)temp
C
wind
direction
speed
KPH
gust
KPH
rain 1hr
cm
rain 24hr
cm
rain mn
cm
humidity
%
barometer
mb
20260505140427 22 189 3.2 3.2 0.00 0.00 0.00 55 992.8
20260505124840 19 147 1.6 3.2 0.00 0.00 0.00 65 993.6
20260505124337 18 220 3.2 3.2 0.00 0.00 0.00 65 993.5
20260505123833 18 238 4.8 4.8 0.00 0.00 0.00 66 993.6
20260505123330 18 251 8.0 8.0 0.00 0.00 0.00 66 993.4
20260505122826 18 249 3.2 4.8 0.00 0.00 0.00 67 993.3
20260505122324 18 255 4.8 4.8 0.00 0.00 0.00 68 993.3
20260505121820 17 278 8.0 12.9 0.00 0.00 0.00 68 993.2
20260505121317 17 266 8.0 11.3 0.00 0.00 0.00 68 993.2
20260505120813 17 259 8.0 9.7 0.00 0.00 0.00 69 992.9
20260505120309 17 234 4.8 4.8 0.00 0.00 0.00 70 993.0
20260505115808 17 231 8.0 9.7 0.00 0.00 0.00 69 993.1
20260505115306 17 275 8.0 11.3 0.00 0.00 0.00 69 992.9
20260505114803 17 224 8.0 9.7 0.00 0.00 0.00 71 992.9
20260505114300 16 269 8.0 9.7 0.00 0.00 0.00 70 992.9
20260505113756 16 256 6.4 8.0 0.00 0.00 0.00 71 992.9
20260505113252 16 228 4.8 4.8 0.00 0.00 0.00 72 992.7
20260505112748 16 235 8.0 9.7 0.00 0.00 0.00 72 992.9
20260505112246 16 242 8.0 11.3 0.00 0.00 0.00 74 992.9
20260505111741 15 235 4.8 4.8 0.00 0.00 0.00 75 992.9
20260505111237 15 221 4.8 8.0 0.00 0.00 0.00 75 992.6
20260505110733 15 202 6.4 8.0 0.00 0.00 0.00 75 992.6
20260505110231 15 274 6.4 8.0 0.00 0.00 0.00 77 992.4
20260505102206 14 225 3.2 3.2 0.00 0.00 0.00 80 992.3
20260505101705 14 204 3.2 3.2 0.00 0.00 0.00 80 992.3
20260505101201 13 221 1.6 1.6 0.00 0.00 0.00 80 992.2
20260505100657 13 219 0.0 1.6 0.00 0.00 0.00 81 992.2
20260505100154 13 219 1.6 1.6 0.00 0.00 0.00 80 992.1
20260505095649 13 217 0.0 0.0 0.00 0.00 0.00 81 992.4
20260505095147 13 217 0.0 0.0 0.00 0.00 0.00 80 992.0
20260505094643 14 221 0.0 0.0 0.00 0.00 0.00 80 992.1
20260505094139 14 222 0.0 0.0 0.00 0.00 0.00 79 992.3
20260505093636 14 222 0.0 1.6 0.00 0.00 0.00 79 992.1
20260505093133 14 212 1.6 1.6 0.00 0.00 0.00 80 992.0
20260505092630 14 222 0.0 0.0 0.00 0.00 0.00 79 992.0
20260505092129 14 181 0.0 0.0 0.00 0.00 0.00 79 992.0
20260505091625 13 189 0.0 1.6 0.00 0.00 0.00 80 992.0
20260505091124 13 183 0.0 1.6 0.00 0.00 0.00 80 992.0
20260505090621 13 180 0.0 0.0 0.00 0.00 0.00 80 992.1
20260505090119 13 165 0.0 0.0 0.00 0.00 0.00 80 992.0
20260505085616 14 165 0.0 1.6 0.00 0.00 0.00 79 992.2
20260505085115 14 162 1.6 1.6 0.00 0.00 0.00 79 991.8
20260505084612 14 162 0.0 0.0 0.00 0.00 0.00 78 992.0
20260505084110 14 163 1.6 1.6 0.00 0.00 0.00 79 991.8
20260505083607 14 154 0.0 0.0 0.00 0.00 0.00 78 991.8
20260505083103 15 153 1.6 3.2 0.00 0.00 0.00 77 991.9
20260505082559 15 186 0.0 0.0 0.00 0.00 0.00 77 992.0
20260505082057 15 201 0.0 0.0 0.00 0.00 0.00 76 991.9
20260505081553 15 208 0.0 0.0 0.00 0.00 0.00 76 991.8
20260505081050 15 208 0.0 0.0 0.00 0.00 0.00 75 991.9
20260505080546 15 208 0.0 0.0 0.00 0.00 0.00 75 991.9
20260505080043 15 208 0.0 0.0 0.00 0.00 0.00 75 992.0
20260505075539 15 208 0.0 0.0 0.00 0.00 0.00 74 992.0
20260505075036 15 208 0.0 0.0 0.00 0.00 0.00 73 991.8
20260505074533 15 208 0.0 0.0 0.00 0.00 0.00 73 991.9
20260505074030 16 210 0.0 0.0 0.00 0.00 0.00 72 992.1
20260505073527 16 224 1.6 1.6 0.00 0.00 0.00 71 992.1
20260505073026 16 223 3.2 3.2 0.00 0.00 0.00 72 992.1
20260505072521 16 242 1.6 3.2 0.00 0.00 0.00 71 992.1
20260505072017 16 238 0.0 1.6 0.00 0.00 0.00 71 992.1
20260505071513 16 243 1.6 3.2 0.00 0.00 0.00 71 991.9
20260505071012 16 256 1.6 3.2 0.00 0.00 0.00 70 992.1
20260505070509 16 245 1.6 3.2 0.00 0.00 0.00 70 992.4
20260505070004 16 232 3.2 3.2 0.00 0.00 0.00 70 992.1
20260505065500 16 230 3.2 4.8 0.00 0.00 0.00 70 992.0
20260505064957 16 256 4.8 4.8 0.00 0.00 0.00 69 992.0
20260505064454 16 210 1.6 3.2 0.00 0.00 0.00 71 992.3
20260505063952 16 254 1.6 1.6 0.00 0.00 0.00 71 992.0
20260505063449 16 255 1.6 1.6 0.00 0.00 0.00 69 992.0
20260505062945 15 261 3.2 3.2 0.00 0.00 0.00 70 992.1
20260505062442 16 253 1.6 1.6 0.00 0.00 0.00 70 992.0
20260505061939 16 264 0.0 0.0 0.00 0.00 0.00 69 992.1
20260505061437 16 283 3.2 4.8 0.00 0.00 0.00 69 992.0
20260505060934 16 246 0.0 1.6 0.00 0.00 0.00 69 992.0
20260505060431 16 269 1.6 3.2 0.00 0.00 0.00 69 991.8
20260505055927 16 198 1.6 1.6 0.00 0.00 0.00 69 991.8
20260505055424 16 78 3.2 4.8 0.00 0.00 0.00 68 991.8
20260505054921 16 246 0.0 1.6 0.00 0.00 0.00 68 991.8
20260505054418 16 252 1.6 3.2 0.00 0.00 0.00 67 991.9
20260505053916 16 239 3.2 3.2 0.00 0.00 0.00 67 991.8
20260505053413 16 243 1.6 1.6 0.00 0.00 0.00 67 991.7
20260505052909 16 235 3.2 4.8 0.00 0.00 0.00 66 992.0
20260505052406 16 242 4.8 8.0 0.00 0.00 0.00 67 991.7
20260505051904 16 220 1.6 1.6 0.00 0.00 0.00 67 991.7
20260505051401 16 253 3.2 4.8 0.00 0.00 0.00 65 991.9
20260505050859 16 223 1.6 1.6 0.00 0.00 0.00 65 992.1
20260505050357 16 231 3.2 3.2 0.00 0.00 0.00 64 991.8
20260505041324 16 232 0.0 1.6 0.00 0.00 0.00 61 991.9
20260505040821 16 199 1.6 1.6 0.00 0.00 0.00 60 991.8
20260505040319 16 183 3.2 4.8 0.00 0.00 0.00 60 991.6
20260505035815 16 236 4.8 8.0 0.00 0.00 0.00 59 991.8
20260505035311 17 182 1.6 3.2 0.00 0.00 0.00 59 991.7
20260505034809 17 212 4.8 8.0 0.00 0.00 0.00 59 991.6
20260505034305 17 119 1.6 1.6 0.00 0.00 0.00 58 991.4
20260505033802 16 221 3.2 4.8 0.00 0.00 0.00 57 991.6
20260505033259 16 218 4.8 9.7 0.00 0.00 0.00 58 991.7
20260505032758 16 240 3.2 4.8 0.00 0.00 0.00 57 991.6
20260505032253 16 196 1.6 3.2 0.00 0.00 0.00 58 991.7
20260505031750 16 223 1.6 1.6 0.00 0.00 0.00 58 991.8
20260505031246 16 191 3.2 3.2 0.00 0.00 0.00 58 991.8
20260505030744 16 133 0.0 0.0 0.00 0.00 0.00 57 991.7
20260505030240 17 237 0.0 0.0 0.00 0.00 0.00 56 991.8
20260505025736 17 234 1.6 3.2 0.00 0.00 0.00 56 991.8
20260505025234 17 197 1.6 1.6 0.00 0.00 0.00 56 991.7
20260505024732 17 214 3.2 4.8 0.00 0.00 0.00 56 991.7
20260505024229 17 252 1.6 1.6 0.00 0.00 0.00 55 991.7
20260505023726 17 211 1.6 1.6 0.00 0.00 0.00 56 991.7
20260505023223 17 230 3.2 4.8 0.00 0.00 0.00 54 991.8
20260505022721 17 241 1.6 3.2 0.00 0.00 0.00 54 992.0
20260505022218 17 248 3.2 3.2 0.00 0.00 0.00 53 992.1
20260505021714 17 206 0.0 1.6 0.00 0.00 0.00 55 992.2
20260505021212 17 240 1.6 3.2 0.00 0.00 0.00 54 992.0
20260505020707 17 220 6.4 9.7 0.00 0.00 0.00 53 992.2
20260505020203 17 252 8.0 14.5 0.00 0.00 0.00 54 992.0
20260505015700 17 245 3.2 3.2 0.00 0.00 0.00 53 991.9
20260505015157 17 227 1.6 1.6 0.00 0.00 0.00 54 992.1
20260505014654 17 207 1.6 1.6 0.00 0.00 0.00 54 991.9
20260505014151 17 175 1.6 3.2 0.00 0.00 0.00 54 992.1
20260505013648 17 234 0.0 0.0 0.00 0.00 0.00 53 992.0
20260505013145 17 239 1.6 1.6 0.00 0.00 0.00 54 992.1
20260505012643 17 244 3.2 3.2 0.00 0.00 0.00 53 992.1
20260505012140 17 221 1.6 1.6 0.00 0.00 0.00 53 991.7
20260505011636 18 226 1.6 3.2 0.00 0.00 0.00 53 992.0
20260505011134 18 227 3.2 3.2 0.00 0.00 0.00 52 991.7
20260505010633 17 218 3.2 3.2 0.00 0.00 0.00 53 991.8
20260505010131 18 211 0.0 1.6 0.00 0.00 0.00 53 991.6
20260505005627 18 222 3.2 3.2 0.00 0.00 0.00 52 991.5
20260505005124 18 231 0.0 1.6 0.00 0.00 0.00 53 991.6
20260505004621 18 193 0.0 0.0 0.00 0.00 0.00 53 991.4
20260505004118 18 231 0.0 0.0 0.00 0.00 0.00 53 991.5
20260505003615 18 191 0.0 0.0 0.00 0.00 0.00 52 991.7
20260505003112 18 204 1.6 1.6 0.00 0.00 0.00 52 991.3
20260505002608 18 204 0.0 0.0 0.00 0.00 0.00 51 991.5
20260505002107 19 245 1.6 1.6 0.00 0.00 0.00 50 991.4
20260505001603 19 234 3.2 3.2 0.00 0.00 0.00 49 991.3
20260505001101 18 231 1.6 3.2 0.00 0.00 0.00 50 991.3
20260505000558 19 215 1.6 1.6 0.00 0.00 0.00 50 991.2
20260505000056 20 205 1.6 3.2 0.00 0.00 0.00 48 991.5
20260504235552 19 238 1.6 4.8 0.00 0.00 0.00 49 991.1
20260504235049 19 269 1.6 3.2 0.00 0.00 0.00 49 991.3
20260504234546 20 220 3.2 4.8 0.00 0.00 0.00 48 991.1
20260504234043 20 182 1.6 1.6 0.00 0.00 0.00 49 991.1
20260504233538 20 232 1.6 1.6 0.00 0.00 0.00 48 991.4
20260504233035 20 237 1.6 1.6 0.00 0.00 0.00 47 991.2
20260504232532 20 245 4.8 4.8 0.00 0.00 0.00 47 991.3
20260504232030 20 212 1.6 1.6 0.00 0.00 0.00 47 991.2
20260504231526 20 218 3.2 3.2 0.00 0.00 0.00 47 991.3
20260504231022 20 245 4.8 4.8 0.00 0.00 0.00 46 991.2
20260504230519 21 222 1.6 3.2 0.00 0.00 0.00 46 991.1
20260504230018 20 242 3.2 3.2 0.00 0.00 0.00 45 991.1
20260504225514 21 238 1.6 1.6 0.00 0.00 0.00 46 991.4
20260504225012 21 191 1.6 3.2 0.00 0.00 0.00 46 991.3
20260504224508 21 244 3.2 3.2 0.00 0.00 0.00 44 991.3
20260504224005 21 206 1.6 3.2 0.00 0.00 0.00 45 991.2
20260504223502 21 46 3.2 3.2 0.00 0.00 0.00 44 991.2
20260504222957 21 258 9.7 11.3 0.00 0.00 0.00 43 991.1
20260504222455 21 266 4.8 9.7 0.00 0.00 0.00 44 991.1
20260504221952 21 247 4.8 8.0 0.00 0.00 0.00 45 991.6
20260504221449 21 207 6.4 9.7 0.00 0.00 0.00 43 991.1
20260504220946 21 279 8.0 9.7 0.00 0.00 0.00 43 991.2
20260504220443 21 194 4.8 4.8 0.00 0.00 0.00 43 991.1
20260504215940 21 235 4.8 8.0 0.00 0.00 0.00 44 991.2
20260504215436 22 237 6.4 8.0 0.00 0.00 0.00 43 991.2
20260504214933 22 269 6.4 8.0 0.00 0.00 0.00 44 991.4
20260504214429 22 60 3.2 4.8 0.00 0.00 0.00 43 991.5
20260504213926 22 203 6.4 9.7 0.00 0.00 0.00 42 991.2
20260504213422 21 240 9.7 11.3 0.00 0.00 0.00 43 991.3
20260504212920 21 268 8.0 9.7 0.00 0.00 0.00 43 991.4
20260504212415 21 225 6.4 8.0 0.00 0.00 0.00 44 991.5
20260504211914 22 214 3.2 4.8 0.00 0.00 0.00 45 991.4
20260504211409 22 248 6.4 9.7 0.00 0.00 0.00 43 991.4
20260504210907 22 200 6.4 8.0 0.00 0.00 0.00 45 991.5
20260504210404 22 289 4.8 8.0 0.00 0.00 0.00 43 991.4
20260504205901 21 258 3.2 8.0 0.00 0.00 0.00 43 991.8
20260504205358 22 251 6.4 8.0 0.00 0.00 0.00 43 991.6
20260504204857 22 173 6.4 9.7 0.00 0.00 0.00 44 991.3
20260504204354 22 248 4.8 8.0 0.00 0.00 0.00 43 991.5
20260504203854 22 242 4.8 4.8 0.00 0.00 0.00 42 991.4
20260504203350 22 270 6.4 8.0 0.00 0.00 0.00 45 991.4
20260504202846 22 242 3.2 3.2 0.00 0.00 0.00 45 991.5
20260504202343 22 207 4.8 4.8 0.00 0.00 0.00 42 991.6
20260504201839 22 191 6.4 8.0 0.00 0.00 0.00 44 991.5
20260504201337 22 177 8.0 11.3 0.00 0.00 0.00 42 991.7
20260504200835 23 179 3.2 3.2 0.00 0.00 0.00 43 991.7
20260504200331 22 246 4.8 4.8 0.00 0.00 0.00 44 991.7
20260504195827 22 220 12.9 16.1 0.00 0.00 0.00 42 991.9
20260504195323 22 237 4.8 9.7 0.00 0.00 0.00 43 991.9
20260504194820 22 260 8.0 11.3 0.00 0.00 0.00 40 991.9
20260504194316 23 259 6.4 8.0 0.00 0.00 0.00 43 991.8
20260504193812 22 223 6.4 9.7 0.00 0.00 0.00 42 992.0
20260504193310 22 178 3.2 4.8 0.00 0.00 0.00 43 991.9
20260504192808 22 223 4.8 8.0 0.00 0.00 0.00 44 992.0
20260504192306 22 123 1.6 3.2 0.00 0.00 0.00 43 992.0
20260504191804 22 115 3.2 4.8 0.00 0.00 0.00 42 992.1
20260504191301 22 246 8.0 11.3 0.00 0.00 0.00 42 992.0
20260504190757 22 257 9.7 12.9 0.00 0.00 0.00 42 992.3
20260504190253 22 259 4.8 8.0 0.00 0.00 0.00 43 992.4
20260504185750 22 266 4.8 8.0 0.00 0.00 0.00 42 992.3
20260504185247 21 263 3.2 4.8 0.00 0.00 0.00 44 992.3
20260504184743 21 231 9.7 12.9 0.00 0.00 0.00 42 992.4
20260504184239 22 265 3.2 3.2 0.00 0.00 0.00 43 992.5
20260504183735 22 123 4.8 4.8 0.00 0.00 0.00 43 992.5
20260504183232 22 261 6.4 8.0 0.00 0.00 0.00 41 992.8
20260504182730 22 217 8.0 9.7 0.00 0.00 0.00 41 992.8
20260504182227 21 264 11.3 14.5 0.00 0.00 0.00 42 992.8
20260504181724 21 242 6.4 8.0 0.00 0.00 0.00 46 993.1
20260504181222 21 238 8.0 12.9 0.00 0.00 0.00 42 993.0
20260504180721 21 245 6.4 9.7 0.00 0.00 0.00 41 993.2
20260504180219 21 257 8.0 11.3 0.00 0.00 0.00 42 993.1
20260504175716 22 228 8.0 11.3 0.00 0.00 0.00 42 993.1
20260504175213 21 244 6.4 8.0 0.00 0.00 0.00 43 993.3
20260504174711 21 239 3.2 4.8 0.00 0.00 0.00 44 993.2
20260504174208 21 275 6.4 9.7 0.00 0.00 0.00 44 993.4
20260504173704 21 201 1.6 4.8 0.00 0.00 0.00 43 993.5
20260504173202 21 251 8.0 9.7 0.00 0.00 0.00 42 993.6
20260504172658 22 193 4.8 8.0 0.00 0.00 0.00 40 993.6
20260504172155 21 216 4.8 8.0 0.00 0.00 0.00 42 993.7
20260504171651 20 273 4.8 8.0 0.00 0.00 0.00 44 993.9
20260504171148 21 191 8.0 11.3 0.00 0.00 0.00 42 993.8
20260504170645 20 242 4.8 4.8 0.00 0.00 0.00 43 994.0
20260504170142 21 266 8.0 9.7 0.00 0.00 0.00 43 994.0
20260504151033 19 191 3.2 3.2 0.00 0.00 0.00 44 995.4
20260504150531 19 233 4.8 4.8 0.00 0.00 0.00 49 995.4